Regional Weather Roundup
Issued by NWS

Home | Current Version | Previous Version | Text Only | Print | Product List | Glossary Off
Versions: 1 2 3 4 5 6 7 8 9 10 11 12 13 14 15 16 17 18 19 20 21 22 23 24 25 26 27

000
ASUS45 KTFX 221110
RWRMT
MONTANA REGIONAL WEATHER ROUNDUP
NATIONAL WEATHER SERVICE GREAT FALLS MT
400 AM MST THU FEB 22 2018

NOTE: "FAIR" INDICATES FEW OR NO CLOUDS BELOW 12000 FEET WITH NO
SIGNIFICANT WEATHER AND/OR OBSTRUCTIONS TO VISIBILITY.

MTZ001>007-043-221200-
WEST OF THE DIVIDE

CITY           SKY/WX    TMP DP  RH WIND       PRES   REMARKS
KALISPELL      CLOUDY     3   1  91 W6        30.09F WCI  -8
MISSOULA       FAIR      11   4  73 CALM      30.06S
BUTTE          CLOUDY    -4 -10  75 SE3       29.90F
MULLAN PASS    MOCLDY     5   3  91 SE8       29.82F WCI  -8
ANACONDA         N/A      1  -6  71 CALM      29.95S
DEER LODGE       N/A     -2  -6  84 CALM      29.99R
HAMILTON         N/A     10   7  85 MISG      30.02F
PLAINS           N/A      1 -11  57 CALM      30.12S
RONAN            N/A      1  -4  78 CALM      30.10S
$$

MTZ008-052>055-221200-
SOUTHWEST MONTANA

CITY           SKY/WX    TMP DP  RH WIND       PRES   REMARKS
BOZEMAN        FAIR      -1  -7  75 CALM      29.97F
DILLON         CLOUDY     2   2 100 CALM      29.90F
ENNIS          CLOUDY    16   3  57 S18G25    29.93F WCI  -1
W YELLOWSTONE  CLOUDY    -2  -6  84 CALM      29.90F
THREE FORKS      N/A     -6 -13  71 S2        29.98F
TWIN BRIDGES     N/A      8  -2  64 CALM      29.92F
$$

MTZ009-010-012-014-046-048-049-054-221200-
EAST SLOPES AND CENTRAL MONTANA

CITY           SKY/WX    TMP DP  RH WIND       PRES   REMARKS
CUT BANK       FAIR       4  -5  66 W3        30.04S
GREAT FALLS    FAIR       3  -4  72 E6        30.05R WCI  -8
MALMSTROM AFB  FAIR       1  -2  86 CALM      30.07S
HELENA         FAIR       1  -3  83 E3        30.04S
AUGUSTA        FAIR       0  -9  67 NE9       29.98S WCI -15
BOWMANS CRNR   FAIR      10  -1  61 CALM      29.98R
CHOTEAU          N/A      3  -8  60 CALM      30.05R
CONRAD           N/A     -7 -15  68 S3        30.07
FAIRFIELD      MOCLDY     0  -9  64 NW6       30.03R WCI -11
POWER          FAIR       2  -7  65 N7        30.03R WCI -11
RAYNESFORD     FAIR       2  -9  60 CALM      30.02S
ULM            MOCLDY     6  -3  66 E5        30.05R
WHITE SULPHUR    N/A     -4  -8  84 CALM      29.95S
$$

MTZ011-013-016-021-045-047-050-051-221200-
NORTH CENTRAL MONTANA

CITY           SKY/WX    TMP DP  RH WIND       PRES   REMARKS
HAVRE          FAIR     -22 -27  77 W7        30.15S WCI -39
LEWISTOWN      FAIR      -5  -8  87 SE6       30.01S WCI -18
N BAR RANCH    FAIR       0  -8  71 CALM      30.02S
CHINOOK          N/A    -27 -33  75 CALM      30.18S
GEYSER         MOCLDY     7  -4  59 CALM      30.01S
STANFORD       FAIR       1  -7  68 W3        29.99S
WINIFRED       FAIR       7  -2  67 W5        30.03S
$$

MTZ017>020-022>027-061-062-221200-
NORTHEAST MONTANA

CITY           SKY/WX    TMP DP  RH WIND       PRES   REMARKS
GLASGOW        FAIR     -13 -20  71 NW3       30.15S
GLENDIVE       FAIR     -10 -15  78 SW5       30.18S
JORDAN           N/A    -24 -29  77 W3        30.12S
MALTA          CLEAR    -29 -36  68 CALM      30.16S
SIDNEY         FAIR     -14 -18  82 CALM      30.22F
WOLF POINT     FAIR     -22 -29  70 CALM      30.21S
PLENTYWOOD       N/A     -2  -8  78 CALM      30.16S
POPLAR           N/A    -20 -26  76 N5        30.22R
SCOBEY           N/A    -22 -33  56 CALM      30.11S
$$

MTZ028>42-056>058-221200-
SOUTHCENTRAL AND SOUTHEAST MONTANA

CITY           SKY/WX    TMP DP  RH WIND       PRES   REMARKS
BAKER          FAIR     -14 -18  82 SE8       30.13F WCI -31
BILLINGS       FAIR       3  -4  72 SW8       30.05F WCI -10
LIVINGSTON     FAIR      -1  -2  95 CALM      29.97F
MILES CITY     FAIR     -20 -23  86 NW5       30.16S
BIG TIMBER     PTCLDY    -2  -6  84 CALM      30.03S
EKALAKA          N/A     11  -5  48 SE5       30.05F
FORSYTH          N/A    -15 -18  84 CALM      30.15S
HARLOWTON      FAIR      -4 -10  75 W6        30.01S WCI -16
LAUREL           N/A      5  -4  66 SW6       30.08S WCI  -6
$$

REGIONAL REPORTS...DAKOTAS

CITY           SKY/WX    TMP DP  RH WIND       PRES   REMARKS
WILLISTON      FAIR     -11 -15  82 CALM      30.22F
MINOT          FAIR      -1  -8  72 S7        30.23F WCI -14
DICKINSON      FAIR      -7 -14  71 S5        30.15F
BEACH          FAIR      -6 -11  77 S6        30.17S WCI -18
CROSBY         FAIR      -4 -11  71 SW18      30.19F WCI -26
TIOGA          FAIR     -11 -15  84 S5        30.20S
WATFORD CITY   FAIR     -15 -20  76 CALM      30.21S
BISMARCK       FAIR      -8 -12  83 E5        30.31F
GRAND FORKS    FAIR      -4  -8  83 S8        30.46F WCI -19
FARGO          FAIR       6  -1  73 S10       30.47S WCI  -9
BUFFALO SD       N/A     -6 -13  71 W6        30.06F WCI -19
RAPID CITY     FAIR       0  -4  83 SE3       30.12F
$$

REGIONAL REPORTS...WYOMING/IDAHO/WASHINGTON

CITY           SKY/WX    TMP DP  RH WIND       PRES   REMARKS
GILLETTE       FAIR       1  -7  68 N6        30.03F WCI -10
SHERIDAN       FAIR      -9 -13  83 SE3       30.06S
BUFFALO WY     FAIR      10  -7  46 W8        30.00S WCI  -2
CODY           FAIR       5  -4  66 S12       29.99F WCI -11
YELLOWSTONE LA   N/A    -14 -18  82 CALM      29.90F
IDAHO FALLS    CLOUDY    14   7  73 CALM      29.98F
SALMON         CLOUDY    19  15  84 CALM      29.96F
BOISE          LGT SNOW  27  25  92 NW6       29.93F FOG     WCI  20
SPOKANE        CLOUDY    15  13  91 N7        30.09S WCI   5
$$

REGIONAL REPORTS...ALBERTA

CITY           SKY/WX    TMP DP  RH WIND       PRES   REMARKS
CALGARY        PTCLDY    10   1  67 NW9       30.07R WCI  -2
FORT MCMURRAY  MOCLDY    12   7  79 W9        29.97R WCI   0
HIGH LEVEL     CLEAR     21  10  63 NW8       30.06R WCI  12
LETHBRIDGE     CLEAR      1  -8  66 W10G20    30.10R WCI -14
LLOYDMINSTER   CLEAR      1  -2  85 W15       30.01R WCI -18
MEDICINE HAT   CLEAR     -6 -11  77 SW8       30.14S WCI -21
PEACE RIVER    CLEAR      9   5  85 NW8       30.13R WCI  -4
PINCHER CREEK  CLOUDY     1  -6  71 NW8       30.06R WCI -12
$$

REGIONAL REPORTS...SASKATCHEWAN

CITY           SKY/WX    TMP DP  RH WIND       PRES   REMARKS
ESTEVAN        PTCLDY   -15 -20  76 S5        30.20S
MOOSE JAW        N/A     -8 -15  71 W2          N/A
PRINCE ALBERT  CLEAR     -6 -11  77 SW9       30.08F WCI -22
REGINA         CLEAR    -15 -20  76 SE9       30.16F WCI -33
ROCKGLEN         N/A     -6 -11  77 W12         N/A  WCI -24
SASKATOON      CLEAR     -9 -15  77 S7        30.10F WCI -24
SWIFT CURRENT  CLEAR     -8 -15  71 SW14      30.04S WCI -28
$$




USA.gov is the U.S. government's official web portal to all federal, state and local government web resources and services.